When you browse on this site, cookies collect data to enhance your experience and personalize the content and advertising you see.
Visit our Privacy Policy to learn more. By continuing to use the site, you agree to this use of cookies and data.
  • En España
  • Lista de países
  • Para 7 días
  • Temperatura del agua
  • El tiempo en el mapa
  • Informadores
  • user-avatar
    Iniciar sesión

    Tiempo cada hora Gjirokaster

    Hoy, 1 Abril, Miércoles

    Tiempo Temperatura Precipitaciones Viento Presión Humedad
    00:00 +3°C° 0 mm 1 mps 647 mmHg 86%
    01:00 +4°C° 0 mm 1 mps 647 mmHg 85%
    02:00 +4°C° 0.1 mm 1 mps 647 mmHg 85%
    03:00 +4°C° 0.1 mm 1 mps 647 mmHg 85%
    04:00 +4°C° 0.1 mm 1 mps 646 mmHg 85%
    05:00 +3°C° 0.4 mm 2 mps 646 mmHg 86%
    06:00 +3°C° 0.4 mm 2 mps 646 mmHg 88%
    07:00 +2°C° 0 mm 3 mps 646 mmHg 89%
    08:00 +2°C° 1.5 mm 3 mps 646 mmHg 90%
    09:00 +1°C° 1.5 mm 4 mps 646 mmHg 91%
    10:00 +1°C° 1.5 mm 4 mps 645 mmHg 93%
    11:00 +1°C° 2.6 mm 4 mps 645 mmHg 94%
    12:00 +1°C° 2.6 mm 3 mps 645 mmHg 95%
    13:00 +1°C° 2.6 mm 3 mps 645 mmHg 96%
    14:00 0°C° 2 mm 3 mps 645 mmHg 95%
    15:00 0°C° 2 mm 3 mps 644 mmHg 94%
    16:00 -1°C° 2 mm 2 mps 644 mmHg 93%
    17:00 -1°C° 0.5 mm 2 mps 644 mmHg 93%
    18:00 -2°C° 0.5 mm 2 mps 644 mmHg 93%
    19:00 -2°C° 0.5 mm 2 mps 645 mmHg 93%
    20:00 -3°C° 0.3 mm 2 mps 645 mmHg 93%
    21:00 -3°C° 0.3 mm 2 mps 645 mmHg 92%
    22:00 -3°C° 0.3 mm 2 mps 645 mmHg 91%
    23:00 -4°C° 0 mm 2 mps 645 mmHg 90%

    Mañana, 2 Abril, Jueves

    Tiempo Temperatura Precipitaciones Viento Presión Humedad
    00:00 -4°C° 0 mm 2 mps 645 mmHg 90%
    01:00 -4°C° 0 mm 2 mps 645 mmHg 90%
    02:00 -5°C° 0 mm 2 mps 645 mmHg 89%
    03:00 -5°C° 0 mm 2 mps 645 mmHg 89%
    04:00 -3°C° 0 mm 1 mps 645 mmHg 88%
    05:00 -2°C° 0 mm 1 mps 645 mmHg 85%
    06:00 -1°C° 0 mm 1 mps 646 mmHg 82%
    07:00 -1°C° 0 mm 1 mps 646 mmHg 79%
    08:00 +1°C° 0 mm 1 mps 647 mmHg 74%
    09:00 +3°C° 0 mm 1 mps 647 mmHg 69%
    10:00 +4°C° 0 mm 1 mps 648 mmHg 63%
    11:00 +5°C° 0 mm 1 mps 648 mmHg 61%
    12:00 +6°C° 0 mm 1 mps 648 mmHg 60%
    13:00 +6°C° 0 mm 2 mps 649 mmHg 58%
    14:00 +6°C° 0 mm 2 mps 648 mmHg 60%
    15:00 +5°C° 0 mm 2 mps 648 mmHg 62%
    16:00 +5°C° 0 mm 2 mps 648 mmHg 64%
    17:00 +5°C° 0 mm 1 mps 647 mmHg 71%
    18:00 +3°C° 0 mm 1 mps 647 mmHg 79%
    19:00 +2°C° 0 mm 1 mps 647 mmHg 86%
    20:00 +2°C° 0 mm 1 mps 647 mmHg 86%
    21:00 +1°C° 0 mm 1 mps 647 mmHg 87%
    22:00 +1°C° 0 mm 1 mps 647 mmHg 87%
    23:00 +1°C° 0 mm 1 mps 647 mmHg 87%

    Pasado mañana, 3 Abril, Viernes

    Tiempo Temperatura Precipitaciones Viento Presión Humedad
    00:00 +1°C° 0 mm 1 mps 647 mmHg 87%
    01:00 +1°C° 0 mm 1 mps 647 mmHg 87%
    02:00 +1°C° 0 mm 1 mps 647 mmHg 85%
    03:00 +1°C° 0 mm 1 mps 647 mmHg 84%
    04:00 +1°C° 0 mm 1 mps 646 mmHg 83%
    05:00 +2°C° 0 mm 1 mps 647 mmHg 81%
    06:00 +3°C° 0 mm 1 mps 647 mmHg 79%
    07:00 +3°C° 0 mm 1 mps 647 mmHg 77%
    08:00 +5°C° 0 mm 1 mps 648 mmHg 71%
    09:00 +6°C° 0 mm 1 mps 648 mmHg 65%
    10:00 +6°C° 0 mm 2 mps 649 mmHg 58%
    11:00 +7°C° 0 mm 1 mps 649 mmHg 62%
    12:00 +7°C° 0 mm 1 mps 648 mmHg 65%
    13:00 +7°C° 0 mm 1 mps 648 mmHg 69%
    14:00 +6°C° 0.4 mm 1 mps 648 mmHg 74%
    15:00 +5°C° 0.4 mm 2 mps 648 mmHg 80%
    16:00 +4°C° 0.4 mm 2 mps 647 mmHg 85%
    17:00 +4°C° 0.4 mm 2 mps 647 mmHg 87%
    18:00 +4°C° 0.4 mm 2 mps 647 mmHg 88%
    19:00 +3°C° 0.4 mm 2 mps 647 mmHg 90%
    20:00 +3°C° 0.2 mm 2 mps 647 mmHg 89%
    21:00 +3°C° 0.2 mm 2 mps 647 mmHg 89%
    22:00 +4°C° 0.2 mm 1 mps 648 mmHg 89%
    23:00 +4°C° 0.2 mm 1 mps 647 mmHg 89%

    4 Abril, Sábado

    Tiempo Temperatura Precipitaciones Viento Presión Humedad
    00:00 +4°C° 0.2 mm 1 mps 647 mmHg 89%
    01:00 +4°C° 0.2 mm 1 mps 647 mmHg 89%
    02:00 +4°C° 0.1 mm 1 mps 647 mmHg 89%
    03:00 +3°C° 0.1 mm 2 mps 647 mmHg 88%
    04:00 +3°C° 0.1 mm 2 mps 646 mmHg 88%
    05:00 +3°C° 0 mm 2 mps 647 mmHg 86%
    06:00 +4°C° 0 mm 2 mps 647 mmHg 85%
    07:00 +4°C° 0 mm 2 mps 647 mmHg 83%
    08:00 +5°C° 0 mm 2 mps 647 mmHg 77%
    09:00 +7°C° 0 mm 2 mps 648 mmHg 71%
    10:00 +8°C° 0 mm 2 mps 648 mmHg 65%
    11:00 +9°C° 0 mm 2 mps 648 mmHg 64%
    12:00 +9°C° 0 mm 2 mps 648 mmHg 62%
    13:00 +10°C° 0 mm 3 mps 649 mmHg 60%
    14:00 +9°C° 0 mm 3 mps 648 mmHg 61%
    15:00 +9°C° 0 mm 3 mps 648 mmHg 62%
    16:00 +9°C° 0 mm 3 mps 648 mmHg 63%
    17:00 +7°C° 0 mm 3 mps 647 mmHg 68%
    18:00 +5°C° 0 mm 3 mps 647 mmHg 72%
    19:00 +4°C° 0 mm 2 mps 647 mmHg 77%
    20:00 +4°C° 0 mm 2 mps 647 mmHg 77%
    21:00 +2°C° 0 mm 3 mps 648 mmHg 78%
    22:00 +2°C° 0 mm 3 mps 648 mmHg 78%
    23:00 +3°C° 0 mm 2 mps 648 mmHg 78%

    5 Abril, Domingo

    Tiempo Temperatura Precipitaciones Viento Presión Humedad
    00:00 +3°C° 0 mm 2 mps 647 mmHg 77%
    01:00 +3°C° 0 mm 2 mps 647 mmHg 77%
    02:00 +3°C° 0 mm 2 mps 647 mmHg 77%
    03:00 +3°C° 0 mm 2 mps 647 mmHg 78%
    04:00 +3°C° 0 mm 2 mps 647 mmHg 78%
    05:00 +3°C° 0 mm 2 mps 648 mmHg 77%
    06:00 +4°C° 0 mm 2 mps 648 mmHg 76%
    07:00 +4°C° 0 mm 2 mps 648 mmHg 74%
    08:00 +5°C° 0 mm 2 mps 649 mmHg 70%
    09:00 +6°C° 0 mm 2 mps 650 mmHg 66%
    10:00 +7°C° 0 mm 2 mps 650 mmHg 61%
    11:00 +8°C° 0 mm 2 mps 650 mmHg 59%
    12:00 +8°C° 0 mm 3 mps 651 mmHg 57%
    13:00 +9°C° 0 mm 3 mps 651 mmHg 55%
    14:00 +8°C° 0 mm 3 mps 651 mmHg 57%
    15:00 +8°C° 0 mm 3 mps 651 mmHg 59%
    16:00 +7°C° 0 mm 3 mps 651 mmHg 60%
    17:00 +5°C° 0 mm 3 mps 651 mmHg 65%
    18:00 +4°C° 0 mm 3 mps 651 mmHg 70%
    19:00 +2°C° 0 mm 3 mps 651 mmHg 75%
    20:00 +2°C° 0 mm 3 mps 651 mmHg 76%
    21:00 +3°C° 0 mm 2 mps 652 mmHg 77%
    22:00 +3°C° 0 mm 2 mps 652 mmHg 78%
    23:00 +2°C° 0 mm 2 mps 652 mmHg 78%

    6 Abril, Lunes

    Tiempo Temperatura Precipitaciones Viento Presión Humedad
    00:00 +2°C° 0 mm 2 mps 652 mmHg 78%
    01:00 +2°C° 0 mm 2 mps 653 mmHg 78%
    02:00 +2°C° 0 mm 2 mps 653 mmHg 78%
    03:00 +2°C° 0 mm 2 mps 653 mmHg 78%
    04:00 +2°C° 0 mm 2 mps 653 mmHg 78%
    05:00 +2°C° 0 mm 2 mps 654 mmHg 77%
    06:00 +3°C° 0 mm 2 mps 654 mmHg 75%
    07:00 +3°C° 0 mm 2 mps 655 mmHg 73%
    08:00 +5°C° 0 mm 2 mps 655 mmHg 64%
    09:00 +6°C° 0 mm 2 mps 656 mmHg 55%
    10:00 +8°C° 0 mm 2 mps 657 mmHg 46%
    11:00 +8°C° 0 mm 2 mps 657 mmHg 43%
    12:00 +9°C° 0 mm 2 mps 657 mmHg 40%
    13:00 +9°C° 0 mm 2 mps 658 mmHg 37%
    14:00 +9°C° 0 mm 2 mps 657 mmHg 40%
    15:00 +8°C° 0 mm 2 mps 657 mmHg 42%
    16:00 +8°C° 0 mm 2 mps 657 mmHg 44%
    17:00 +7°C° 0 mm 2 mps 657 mmHg 49%
    18:00 +5°C° 0 mm 2 mps 657 mmHg 54%
    19:00 +4°C° 0 mm 1 mps 656 mmHg 59%
    20:00 +4°C° 0 mm 1 mps 657 mmHg 59%
    21:00 +3°C° 0 mm 2 mps 657 mmHg 59%
    22:00 +2°C° 0 mm 2 mps 657 mmHg 59%
    23:00 +2°C° 0 mm 2 mps 657 mmHg 59%
    Mostrar más